Location: Albuquerque Trailhead
(34.7934°N, 106.3736°W)
Time: 01:31:19
(UTC+00:00)

BREEZE M DEB (TANK) - Pass Details

Date: 20 June 2021
Orbit: 306 x 14481 km, 49.5° (Epoch: 27 July)

Event Time Altitude Azimuth Distance (km) Brightness Sun altitude
Exits shadow 04:13:40 18° 197° (SSW) 1,616 4.9 -18.7°
Maximum altitude 04:16:41 52° 125° (SE) 1,245 4.2 -19.1°
Drops below altitude 10° 04:29:30 10° 53° (NE) 6,190 8.1 -20.8°
Sets 04:38:42 0° 51° (NE) 9,453 9.1 -22.0°
